Simultaneous Nadir Overpasses (SNOs) Predictions

Prediction of SNOs between METOP-C and LANDSAT-8 Satellite Orbit:

Table of predicted SNOs for the next 14.0 days since TLE Epoch: 5/13/2023
Index Date (METOP-C) Time (METOP-C) Lat,Lon (METOP-C) SZA (METOP-C ) Date (LANDSAT-8) Time (LANDSAT-8) Lat,Lon (LANDSAT-8) SZA (LANDSAT-8 ) Distance(km) Time Diff (sec)
1 05/14/2023 14:24:13 -81.11,-177.21 115.42 05/14/2023 14:24:48 -81.12,-177.13 115.40 1.46 35
2 05/14/2023 15:14:52 81.15, -8.87 64.70 05/14/2023 15:14:13 81.14, -9.05 64.67 3.00 39
3 05/17/2023 09:58:34 -81.10,-110.98 116.10 05/17/2023 09:59:02 -81.10,-110.87 116.08 1.86 28
4 05/17/2023 10:49:13 81.14, 57.30 64.02 05/17/2023 10:48:27 81.13, 57.18 63.98 2.16 46
5 05/20/2023 05:32:52 -81.12, -44.09 116.65 05/20/2023 05:33:13 -81.12, -44.12 116.64 0.72 21
6 05/20/2023 06:23:33 81.13, 123.39 63.36 05/20/2023 06:22:39 81.13, 123.55 63.36 2.72 54
7 05/23/2023 01:07:13 -81.11, 21.97 117.27 05/23/2023 01:07:26 -81.11, 22.04 117.26 1.14 13
8 05/23/2023 01:57:52 81.14,-169.87 62.84 05/23/2023 01:56:51 81.13,-169.96 62.79 1.84 61
9 05/25/2023 20:41:32 -81.12, 88.69 117.75 05/25/2023 20:41:37 -81.12, 88.68 117.75 0.16 5



Historial Predications of SNOs between METOP-C and LANDSAT-8
